EW9763 Weather Reports


Display with metric or nautical units.
time (UTC)temp
F
wind
direction
speed
MPH
gust
MPH
rain 1hr
in
rain 24hr
in
rain mn
in
humidity
%
barometer
mb
20260503013443 46 158 6.0 13.0 0.00 0.00 0.00 62 1012.4
20260503012937 46 152 6.0 13.0 0.00 0.00 0.00 62 1012.3
20260503012433 47 146 6.0 11.0 0.00 0.00 0.00 62 1012.4
20260503011934 47 158 6.0 11.0 0.00 0.00 0.00 62 1012.3
20260503011433 47 157 6.0 13.0 0.00 0.00 0.00 62 1012.3
20260503010928 47 153 6.0 13.0 0.00 0.00 0.00 61 1012.3
20260503010427 48 152 6.0 10.0 0.00 0.00 0.00 60 1012.3
20260503005929 48 161 7.0 13.0 0.00 0.00 0.00 59 1012.4
20260503005428 48 154 7.0 13.0 0.00 0.00 0.00 59 1012.3
20260503005201 49 143 7.0 13.0 0.00 0.00 0.00 59 1012.3
20260503004701 49 133 6.0 13.0 0.00 0.00 0.00 59 1012.3
20260503003929 49 150 5.0 11.0 0.00 0.00 0.00 60 1012.4
20260503003424 50 157 6.0 13.0 0.00 0.00 0.00 59 1012.3
20260503002924 50 161 8.0 13.0 0.00 0.00 0.00 58 1012.3
20260503002424 50 178 7.0 14.0 0.00 0.00 0.00 57 1012.3
20260503002156 51 175 8.0 16.0 0.00 0.00 0.00 56 1012.3
20260503001424 51 157 9.0 16.0 0.00 0.00 0.00 56 1012.4
20260503000923 51 141 8.0 15.0 0.00 0.00 0.00 58 1012.4
20260503000656 51 158 7.0 13.0 0.00 0.00 0.00 58 1012.5
20260502235919 51 131 8.0 12.0 0.00 0.00 0.00 58 1012.5
20260502235416 51 143 7.0 12.0 0.00 0.00 0.00 57 1012.5
20260502234915 52 126 7.0 14.0 0.00 0.00 0.00 58 1012.5
20260502234647 52 169 8.0 17.0 0.00 0.00 0.00 57 1012.5
20260502233913 52 128 8.0 17.0 0.00 0.00 0.00 56 1012.5
20260502233413 53 150 9.0 17.0 0.00 0.00 0.00 56 1012.6
20260502232907 53 136 10.0 19.0 0.00 0.00 0.00 55 1012.6
20260502232407 54 142 9.0 19.0 0.00 0.00 0.00 53 1012.5
20260502231908 55 162 7.0 14.0 0.00 0.00 0.00 51 1012.6
20260502231408 57 153 5.0 14.0 0.00 0.00 0.00 44 1012.6
20260502230909 57 172 4.0 12.0 0.00 0.00 0.00 39 1012.5
20260502230640 58 204 4.0 8.0 0.00 0.00 0.00 38 1012.5
20260502225910 58 198 4.0 8.0 0.00 0.00 0.00 40 1012.6
20260502225401 58 183 4.0 10.0 0.00 0.00 0.00 40 1012.7
20260502224902 58 232 5.0 10.0 0.00 0.00 0.00 41 1012.8
20260502224401 58 215 4.0 8.0 0.00 0.00 0.00 40 1012.8
20260502224130 58 235 4.0 10.0 0.00 0.00 0.00 40 1012.8
20260502223359 58 191 5.0 12.0 0.00 0.00 0.00 39 1012.9
20260502222900 58 193 5.0 12.0 0.00 0.00 0.00 39 1012.9
20260502222356 59 192 4.0 10.0 0.00 0.00 0.00 38 1012.9
20260502221856 59 202 4.0 9.0 0.00 0.00 0.00 40 1013.0
20260502221353 59 193 4.0 10.0 0.00 0.00 0.00 39 1013.0
20260502220854 59 192 4.0 10.0 0.00 0.00 0.00 39 1013.0
20260502220353 59 201 3.0 7.0 0.00 0.00 0.00 40 1013.1
20260502215854 59 271 3.0 10.0 0.00 0.00 0.00 39 1013.1
20260502215349 59 184 3.0 10.0 0.00 0.00 0.00 38 1013.1
20260502214845 59 208 3.0 8.0 0.00 0.00 0.00 39 1013.2
20260502214345 59 190 3.0 8.0 0.00 0.00 0.00 40 1013.3
20260502213845 58 219 2.0 7.0 0.00 0.00 0.00 40 1013.3
20260502213351 58 307 2.0 7.0 0.00 0.00 0.00 37 1013.4
20260502212846 58 188 2.0 7.0 0.00 0.00 0.00 39 1013.4
20260502212340 58 277 5.0 19.0 0.00 0.00 0.00 38 1013.5
20260502211839 57 297 7.0 19.0 0.00 0.00 0.00 43 1013.6
20260502211339 58 113 5.0 12.0 0.00 0.00 0.00 42 1013.6
20260502210839 58 196 4.0 12.0 0.00 0.00 0.00 42 1013.6
20260502210340 58 174 2.0 8.0 0.00 0.00 0.00 43 1013.7
20260502205840 58 231 3.0 8.0 0.00 0.00 0.00 40 1013.8
20260502205606 58 270 4.0 10.0 0.00 0.00 0.00 41 1013.9
20260502205104 58 214 4.0 10.0 0.00 0.00 0.00 42 1013.9
20260502204606 57 205 6.0 12.0 0.00 0.00 0.00 43 1014.0
20260502203833 57 176 6.0 12.0 0.00 0.00 0.00 40 1014.1
20260502203333 57 286 5.0 10.0 0.00 0.00 0.00 39 1014.1
20260502202834 57 219 4.0 10.0 0.00 0.00 0.00 42 1014.2
20260502202329 56 284 3.0 9.0 0.00 0.00 0.00 42 1014.3
20260502201827 56 116 3.0 8.0 0.00 0.00 0.00 41 1014.3
20260502201327 56 344 4.0 9.0 0.00 0.00 0.00 40 1014.5
20260502200827 56 184 4.0 9.0 0.00 0.00 0.00 42 1014.7
20260502200327 56 296 5.0 8.0 0.00 0.00 0.00 43 1014.7
20260502195828 55 243 5.0 11.0 0.00 0.00 0.00 44 1014.7
20260502195555 56 120 4.0 11.0 0.00 0.00 0.00 42 1014.9
20260502194826 56 221 3.0 7.0 0.00 0.00 0.00 43 1015.0
20260502194327 56 138 3.0 7.0 0.00 0.00 0.00 45 1015.1
20260502194056 56 351 3.0 7.0 0.00 0.00 0.00 40 1015.3
20260502193323 55 223 4.0 10.0 0.00 0.00 0.00 42 1015.4
20260502192822 55 198 4.0 10.0 0.00 0.00 0.00 45 1015.5
20260502192320 55 170 4.0 8.0 0.00 0.00 0.00 47 1015.5
20260502191819 54 138 6.0 12.0 0.00 0.00 0.00 43 1015.7
20260502191550 54 193 6.0 13.0 0.00 0.00 0.00 42 1015.6
20260502190821 55 213 5.0 13.0 0.00 0.00 0.00 44 1015.7
20260502190320 55 182 4.0 8.0 0.00 0.00 0.00 44 1015.7
20260502185820 55 263 5.0 12.0 0.00 0.00 0.00 42 1015.8
20260502185320 56 242 6.0 13.0 0.00 0.00 0.00 41 1015.8
20260502184815 55 302 6.0 14.0 0.00 0.00 0.00 38 1015.9
20260502184317 55 279 8.0 15.0 0.00 0.00 0.00 40 1016.0
20260502183815 55 287 9.0 18.0 0.00 0.00 0.00 40 1016.0
20260502183316 56 320 7.0 18.0 0.00 0.00 0.00 43 1016.1
20260502182815 54 308 5.0 11.0 0.00 0.00 0.00 43 1016.1
20260502182315 54 325 5.0 10.0 0.00 0.00 0.00 39 1016.2
20260502181816 54 335 6.0 14.0 0.00 0.00 0.00 41 1016.3
20260502181313 54 302 8.0 16.0 0.00 0.00 0.00 42 1016.4
20260502180813 54 302 9.0 18.0 0.00 0.00 0.00 40 1016.4
20260502180314 55 304 8.0 18.0 0.00 0.00 0.00 43 1016.5
20260502170301 53 263 3.0 10.0 0.00 0.00 0.00 45 1017.2
20260502164300 51 184 4.0 10.0 0.00 0.00 0.00 45 1017.4
20260502163755 51 278 3.0 8.0 0.00 0.00 0.00 45 1017.5
20260502163255 51 252 3.0 8.0 0.00 0.00 0.00 46 1017.5
20260502163026 51 292 5.0 12.0 0.00 0.00 0.00 46 1017.6
20260502162526 50 265 6.0 12.0 0.00 0.00 0.00 46 1017.7
20260502161755 51 305 4.0 10.0 0.00 0.00 0.00 46 1017.7
20260502161257 51 194 3.0 8.0 0.00 0.00 0.00 48 1017.8
20260502160757 50 214 5.0 11.0 0.00 0.00 0.00 48 1017.9
20260502160255 50 298 6.0 11.0 0.00 0.00 0.00 47 1018.0
20260502151739 47 284 2.0 5.0 0.00 0.00 0.00 50 1018.2
20260502151241 47 311 2.0 4.0 0.00 0.00 0.00 50 1018.2
20260502150738 47 144 3.0 6.0 0.00 0.00 0.00 54 1018.2
20260502150239 47 31 3.0 7.0 0.00 0.00 0.00 56 1018.3
20260502130716 39 343 2.0 4.0 0.00 0.00 0.00 76 1019.1
20260502130221 39 306 1.0 3.0 0.00 0.00 0.00 79 1019.1
20260502123208 36 312 2.0 3.0 0.00 0.00 0.00 88 1019.1
20260502122708 36 332 1.0 3.0 0.00 0.00 0.00 90 1019.1
20260502122432 36 333 1.0 3.0 0.00 0.00 0.00 91 1019.0
20260502121701 36 181 0.0 1.0 0.00 0.00 0.00 92 1019.0
20260502121201 36 179 0.0 1.0 0.00 0.00 0.00 93 1019.0
20260502120659 36 179 0.0 1.0 0.00 0.00 0.00 93 1019.0
20260502120429 35 180 0.0 0.0 0.00 0.00 0.00 94 1019.0
20260502115659 35 179 0.0 0.0 0.00 0.00 0.00 94 1019.0
20260502115157 34 180 0.0 1.0 0.00 0.00 0.00 94 1019.0
20260502114656 33 180 0.0 2.0 0.00 0.00 0.00 94 1018.9
20260502114156 32 180 1.0 3.0 0.00 0.00 0.00 94 1018.9
20260502113653 32 180 1.0 3.0 0.00 0.00 0.00 94 1018.9
20260502113155 31 167 0.0 3.0 0.00 0.00 0.00 94 1018.9
20260502112653 31 167 1.0 3.0 0.00 0.00 0.00 94 1018.9
20260502112154 31 169 1.0 2.0 0.00 0.00 0.00 94 1018.9
20260502111652 31 169 1.0 2.0 0.00 0.00 0.00 93 1018.9
20260502111149 31 172 1.0 2.0 0.00 0.00 0.00 93 1018.8
20260502110921 31 180 1.0 2.0 0.00 0.00 0.00 94 1018.7
20260502110149 31 180 1.0 2.0 0.00 0.00 0.00 94 1018.7
20260502105646 30 180 0.0 2.0 0.00 0.00 0.00 93 1018.7
20260502105147 30 180 0.0 1.0 0.00 0.00 0.00 93 1018.7
20260502104643 30 180 0.0 1.0 0.00 0.00 0.00 93 1018.7
20260502104149 31 181 0.0 2.0 0.00 0.00 0.00 93 1018.6
20260502104143 30 181 0.0 0.0 0.00 0.00 0.00 93 1018.7
20260502103414 31 180 1.0 2.0 0.00 0.00 0.00 93 1018.6
20260502102640 31 180 0.0 2.0 0.00 0.00 0.00 93 1018.6
20260502102141 31 207 0.0 0.0 0.00 0.00 0.00 93 1018.6
20260502101909 31 209 0.0 0.0 0.00 0.00 0.00 93 1018.6
20260502101136 31 209 0.0 0.0 0.00 0.00 0.00 93 1018.6
20260502100636 31 209 0.0 0.0 0.00 0.00 0.00 93 1018.5
20260502100408 31 210 0.0 0.0 0.00 0.00 0.00 93 1018.5
20260502091113 31 194 0.0 1.0 0.00 0.00 0.00 92 1018.4
20260502090610 31 194 0.0 0.0 0.00 0.00 0.00 92 1018.5
20260502090111 31 194 0.0 0.0 0.00 0.00 0.00 92 1018.4
20260502071040 33 188 0.0 0.0 0.00 0.00 0.00 90 1018.4
20260502070814 33 188 0.0 0.0 0.00 0.00 0.00 90 1018.4
20260502070038 33 188 0.0 0.0 0.00 0.00 0.00 90 1018.4
20260502065537 33 188 0.0 1.0 0.00 0.00 0.00 90 1018.5
20260502065038 33 188 0.0 1.0 0.00 0.00 0.00 90 1018.5
20260502064537 33 188 0.0 0.0 0.00 0.00 0.00 89 1018.5
20260502064034 33 188 0.0 1.0 0.00 0.00 0.00 89 1018.5
20260502063534 34 188 0.0 2.0 0.00 0.00 0.00 89 1018.5
20260502063035 34 188 0.0 2.0 0.00 0.00 0.00 89 1018.5
20260502062532 34 188 0.0 2.0 0.00 0.00 0.00 89 1018.5
20260502062033 34 188 1.0 3.0 0.00 0.00 0.00 89 1018.5
20260502061802 34 188 2.0 3.0 0.00 0.00 0.00 88 1018.5
20260502061028 34 188 2.0 4.0 0.00 0.00 0.00 88 1018.5
20260502060531 34 188 2.0 4.0 0.00 0.00 0.00 88 1018.5
20260502060525 34 190 2.0 4.0 0.00 0.00 0.00 88 1018.5
20260502055522 34 189 2.0 3.0 0.00 0.00 0.00 88 1018.5
20260502055023 34 189 2.0 3.0 0.00 0.00 0.00 88 1018.5
20260502054523 34 190 2.0 4.0 0.00 0.00 0.00 87 1018.5
20260502054022 34 189 3.0 4.0 0.00 0.00 0.00 87 1018.6
20260502053524 34 189 2.0 4.0 0.00 0.00 0.00 87 1018.5
20260502053019 35 182 1.0 3.0 0.00 0.00 0.00 87 1018.5
20260502052750 35 182 0.0 0.0 0.00 0.00 0.00 87 1018.5
20260502052016 35 179 0.0 0.0 0.00 0.00 0.00 86 1018.6
20260502051516 35 179 0.0 0.0 0.00 0.00 0.00 86 1018.5
20260502051016 35 179 0.0 0.0 0.00 0.00 0.00 86 1018.5
20260502050517 35 179 0.0 0.0 0.00 0.00 0.00 85 1018.5
20260502050010 35 179 0.0 3.0 0.00 0.00 0.00 84 1018.5
20260502045510 35 179 1.0 3.0 0.00 0.00 0.00 84 1018.5
20260502045007 35 179 0.0 2.0 0.00 0.00 0.00 84 1018.5
20260502044504 35 177 0.0 2.0 0.00 0.00 0.00 83 1018.5
20260502044005 35 177 1.0 3.0 0.00 0.00 0.00 83 1018.5
20260502043734 35 177 1.0 3.0 0.00 0.00 0.00 83 1018.5
20260502043002 35 177 1.0 3.0 0.00 0.00 0.00 83 1018.5
20260502042732 35 177 1.0 4.0 0.00 0.00 0.00 83 1018.5
20260502042003 36 177 1.0 4.0 0.00 0.00 0.00 82 1018.5
20260502041459 36 207 0.0 2.0 0.00 0.00 0.00 82 1018.5
20260502041001 36 208 0.0 0.0 0.00 0.00 0.00 82 1018.5
20260502040500 36 208 0.0 2.0 0.00 0.00 0.00 82 1018.5
20260502035957 36 208 1.0 3.0 0.00 0.00 0.00 82 1018.5
20260502035456 36 208 1.0 3.0 0.00 0.00 0.00 82 1018.5
20260502034956 36 207 1.0 3.0 0.00 0.00 0.00 82 1018.5
20260502034455 36 207 1.0 3.0 0.00 0.00 0.00 81 1018.5
20260502033956 36 268 1.0 3.0 0.00 0.00 0.00 81 1018.6
20260502033456 36 275 0.0 3.0 0.00 0.00 0.00 80 1018.6
20260502032953 36 333 0.0 1.0 0.00 0.00 0.00 80 1018.6
20260502032452 37 333 0.0 1.0 0.00 0.00 0.00 79 1018.7
20260502031952 37 333 0.0 0.0 0.00 0.00 0.00 79 1018.7
20260502031452 37 333 0.0 1.0 0.00 0.00 0.00 79 1018.7
20260502030954 38 333 0.0 1.0 0.00 0.00 0.00 79 1018.8
20260502030458 38 333 0.0 0.0 0.00 0.00 0.00 78 1018.8
20260502025951 38 333 0.0 1.0 0.00 0.00 0.00 78 1018.7
20260502025452 38 333 0.0 1.0 0.00 0.00 0.00 77 1018.7
20260502024952 39 333 0.0 1.0 0.00 0.00 0.00 77 1018.7
20260502024452 39 333 0.0 1.0 0.00 0.00 0.00 76 1018.7
20260502023952 39 333 0.0 0.0 0.00 0.00 0.00 75 1018.7
20260502023449 39 342 0.0 0.0 0.00 0.00 0.00 73 1018.7
20260502022948 39 350 0.0 0.0 0.00 0.00 0.00 73 1018.7
20260502022450 39 350 0.0 1.0 0.00 0.00 0.00 73 1018.6
20260502021948 39 350 0.0 1.0 0.00 0.00 0.00 73 1018.7
20260502021449 39 350 0.0 0.0 0.00 0.00 0.00 72 1018.7
20260502020947 40 350 0.0 0.0 0.00 0.00 0.00 72 1018.6
20260502020717 40 350 0.0 0.0 0.00 0.00 0.00 69 1018.6
20260502015944 40 350 0.0 2.0 0.00 0.00 0.00 67 1018.5
20260502015445 40 350 0.0 2.0 0.00 0.00 0.00 66 1018.5
20260502014944 40 350 0.0 1.0 0.00 0.00 0.00 65 1018.5
20260502014443 41 350 0.0 0.0 0.00 0.00 0.00 64 1018.4
20260502013938 41 350 1.0 3.0 0.00 0.00 0.00 64 1018.3
20260502013707 41 350 1.0 3.0 0.00 0.00 0.00 64 1018.4